Location: Ravensburg
(48.5621°N, 13.4088°E)
Time: 18:37:31
(UTC+01:00)

ISS - Pass Details

Date: 13 January 2018
Orbit: 402 x 407 km, 51.6° (Epoch: 17 January)

Event Time Altitude Azimuth Distance (km) Brightness Sun altitude
Exits shadow 07:06:45 - 265° (W) 1,636 -1.3 -7.8°
Reaches altitude 10° 07:07:28 10° 255° (WSW) 1,464 -1.5 -7.7°
Maximum altitude 07:09:08 13° 224° (SW) 1,274 -1.5 -7.5°
Drops below altitude 10° 07:10:49 10° 193° (SSW) 1,460 -0.9 -7.2°
Sets 07:13:41 0° 165° (SSE) 2,316 0.6 -6.8°
